Location: Phoenix
(33.4480°N, 112.0730°W)
Time: 17:42:19
(UTC-07:00)

Daily predictions for brighter satellites

Satellite Brightness Start Highest point End
(mag) Time Altitude Azimuth Time Altitude Azimuth Time Altitude Azimuth
CSL-04 Debris 4.2 17:43:31 10° SSE 17:48:49 61° ENE 17:54:07 10° N
Cosmos 1025 Rocket 4.5 17:49:36 10° SE 17:52:31 18° E 17:55:24 10° NE
GOES 2 Rocket 3.9 17:48:35 10° WSW 17:52:36 44° S 17:57:10 10° ESE
ALOS 3.7 17:51:04 10° ESE 17:53:59 17° ENE 17:56:54 10° NNE
DELTA 2 R/B (1) 4.2 17:50:03 10° WNW 17:55:22 44° N 18:00:42 10° ENE
Meteor 1-13 Rocket 4.3 17:52:06 10° S 17:57:40 89° E 18:03:21 10° N
Cosmos 2369 3.7 17:52:26 10° SSW 17:58:06 85° ESE 18:03:49 10° NNE
Cosmos 2278 3.7 17:53:00 10° SSW 17:58:39 81° ESE 18:04:22 10° NNE
Cosmos 1536 Rocket 3.5 17:54:30 10° S 17:58:48 68° E 18:03:08 10° NNE
CZ-4 R/B 1.5 17:56:17 10° SSE 17:59:58 48° ENE 18:03:46 10° N
Hubble Space Telescope 2.3 17:57:01 10° WSW 18:00:46 34° S 18:04:32 10° SE
Meteor 1-28 Rocket 3.2 17:58:36 10° N 18:02:22 86° WNW 18:06:09 10° SSW
IRAS Rocket 4.3 17:57:51 10° SSE 18:03:20 88° WSW 18:08:50 10° NNW
CSL-04 Rocket 3.8 18:00:05 10° SSE 18:05:29 82° WSW 18:11:00 10° NNW
Cosmos 2084 3.9 18:01:46 10° S 18:05:48 41° ESE 18:09:21 12° NE
ATLAS 2AS CENTAUR R/B 4.2 17:58:39 10° WSW 18:05:48 39° NW 18:13:18 10° NNE
OAO 1 Rocket 4.5 18:02:10 10° W 18:07:31 76° N 18:12:21 13° E
Cosmos 158 Rocket 3.9 18:03:48 10° N 18:08:47 59° ENE 18:13:36 10° SSE
ATLAS 3B R/B 2.6 18:03:27 10° NNW 18:10:02 64° ENE 18:16:29 10° SE
Cosmos 1515 4.4 18:07:28 10° SSE 18:10:52 33° E 18:14:17 10° NNE
Cosmos 1743 3.7 18:08:59 10° NNW 18:12:45 52° W 18:16:32 10° S
EO 1 Del DPAF 3.9 18:09:37 10° NNE 18:13:08 35° E 18:16:38 10° SSE
DELTA 2 R/B (2) 4.1 18:12:28 10° WSW 18:15:01 66° SSE 18:17:30 17° ENE
Cosmos 468 4.5 18:10:01 10° NNW 18:15:20 72° ENE 18:20:35 10° SSE
Cosmos 1697 Rocket 2.7 18:10:42 10° S 18:16:18 68° ESE 18:21:54 10° NNE
SKYMED 2 3.7 18:12:37 10° NNE 18:16:53 54° E 18:21:07 10° S
USA 215 3.2 18:11:02 10° SE 18:17:32 71° NE 18:24:01 10° NW
Okean 2 3.9 18:16:29 10° SSE 18:20:16 37° E 18:24:04 10° NNE
NOSS 3-4 (A) 3.4 18:20:51 10° SSW 18:27:04 86° ESE 18:33:16 11° NNE
NOSS 3-4 (C) 3.4 18:20:57 10° SSW 18:27:10 85° ESE 18:33:20 11° NNE
ISS -3.9 18:24:27 10° NW 18:27:44 86° SW 18:30:59 10° SE
ERS-2 2.6 18:25:59 10° SE 18:29:22 38° ENE 18:32:47 10° N
Landsat 4 3.8 18:26:39 10° N 18:30:28 78° WNW 18:34:14 10° SSW
Cosmos 2082 3.6 18:27:20 10° NNW 18:32:58 79° ENE 18:38:35 10° SSE
NOSS 2-2 (D) 4.1 18:32:09 10° S 18:35:37 31° ESE 18:36:41 27° E
SPOT 3 Rocket 3.7 18:33:25 10° SSE 18:38:25 50° ENE 18:43:23 10° N
Cosmos 2266 Rocket 4.1 18:35:57 10° N 18:42:04 77° W 18:48:15 10° S
EP 2 4.1 18:40:54 10° SSW 18:43:43 75° ESE 18:44:01 63° ENE
YAOGAN 1 2.9 18:40:16 10° S 18:44:33 67° W 18:48:51 10° NNW
Cosmos 2227 Rocket 2.7 18:39:02 10° NNW 18:44:37 63° WSW 18:50:09 10° S
Delta 2 Rocket 4.3 18:43:43 10° WNW 18:49:15 63° SSW 18:52:51 19° SE
CENTAUR R/B 3.9 18:43:36 10° N 18:50:10 27° NE 18:51:52 25° ENE
NOSS 2-2 (E) 3.3 18:47:30 10° SSW 18:51:18 61° ESE 18:52:27 41° ENE
MOS 1 4.2 18:47:51 10° SSE 18:53:33 90° NNE 18:59:14 10° NNW
Thor Agena Rocket 4.1 18:52:56 32° ENE 18:54:08 37° E 18:58:58 10° SSE
Cosmos 1980 Rocket 2.1 18:51:39 10° SSW 18:57:18 87° ESE 19:01:24 20° NNE
Intelsat 5-3 Rocket 4.2 18:53:37 10° SW 18:57:47 20° S 18:59:30 15° SSE
NOSS 2-2 (C) 3.3 18:54:13 10° SSW 18:58:00 61° ESE 18:58:36 53° ENE
Cosmos 1066 Rocket 4.2 18:53:17 10° S 18:58:41 55° E 19:01:39 26° NNE
S3M 4.2 18:53:22 10° SSE 18:59:06 44° E 19:01:52 28° NE
STPSAT 2 (USA 217) 4.5 18:55:01 10° NNW 18:59:34 84° ENE 19:04:06 10° SSE
Cosmos 494 Rocket 4.2 18:55:31 10° N 19:00:34 45° ENE 19:04:06 18° SE
Cosmos 1269 Rocket 4.3 18:57:58 10° NNW 19:03:14 68° WSW 19:08:27 10° S
Shenzhou-11 Module 4.0 19:01:17 10° SSW 19:02:47 20° S 19:02:47 20° S
COSMO-SKYMED 1 4.0 19:00:50 10° N 19:04:51 37° WNW 19:08:50 10° SW
Cosmos 1184 Rocket 3.5 19:01:57 10° S 19:04:16 42° S 19:04:16 42° S
SJ 16-02 3.9 19:03:32 10° WSW 19:06:34 18° WNW 19:09:36 10° NNW
Lacrosse 5 rocket 2.9 19:06:54 10° S 19:09:08 24° SSE 19:09:08 24° SSE
Cosmos 2297 Rocket 3.4 19:05:49 10° NW 19:11:06 42° WSW 19:16:23 10° S
Atlas Centaur 2 3.3 19:09:32 10° W 19:13:59 29° SSW 19:16:06 20° SSE
Cosmos 1244 Rocket 4.4 19:10:50 10° N 19:17:00 88° E 19:23:12 10° S
RESURS DK-1 2.5 19:15:51 10° SSW 19:19:57 70° WNW 19:20:16 65° NNW
ALOS 3.6 19:26:42 10° SSW 19:31:03 40° W 19:35:26 10° NNW
Cosmos 1553 Rocket 4.0 19:26:06 10° S 19:32:30 83° W 19:37:23 19° N
BREEZE-M R/B 3.9 19:29:08 10° SSW 19:31:29 36° SSE 19:31:29 36° SSE
SL-16 R/B 2.6 19:33:08 10° S 19:37:21 48° SSE 19:37:21 48° SSE
SL-08 R/B 4.3 19:32:26 10° N 19:38:42 85° E 19:44:53 10° S
Hubble Space Telescope 3.2 19:39:00 10° WSW 19:41:31 16° SSW 19:41:56 15° SSW
DELTA 2 R/B (1) 3.9 19:36:50 10° WNW 19:41:34 56° NNW 19:41:34 56° NNW
Cosmos 2322 Rocket 2.7 19:38:11 10° S 19:42:07 45° S 19:42:07 45° S
GOES 2 Rocket 4.5 19:42:21 10° WSW 19:46:31 35° SSW 19:46:31 35° SSW
Cosmos 2344 3.4 19:42:25 10° SSW 19:50:07 71° ESE 19:50:38 69° E
NOSS 3-2 (C) 4.4 19:47:11 10° NW 19:54:52 63° WSW 20:03:04 10° SSE
CENTAUR R/B 3.7 20:33:27 10° NW 20:39:08 50° NW 20:39:08 50° NW
